Minot, ND

5:48 PM CST on November 21, 2017 (GMT -0600)
Minot International

Weather History for KMOT - November, 2013

Change the Weather History Date:

Sunday, November 3, 2013

  Actual Average Record
Temperature  
Mean Temperature 42 °F 35 °F  
Max Temperature 48 °F 45 °F 71 °F (1904)
Min Temperature 36 °F 26 °F -4 °F (2003)
Degree Days  
Heating Degree Days 23 30  
Month to date heating degree days 73 87  
Since 1 July heating degree days 966 1047  
Moisture  
Dew Point 30 °F    
Average Humidity 63    
Maximum Humidity 76    
Minimum Humidity 50    
Precipitation  
Precipitation 0.00 in 0.03 in 1.20 in (1919)
Month to date precipitation 0.01 0.09  
Year to date precipitation 24.67 16.15  
Sea Level Pressure  
Sea Level Pressure 29.62 in    
Wind  
Wind Speed 9 mph (SE)    
Max Wind Speed 18 mph    
Max Gust Speed 24 mph    
Visibility 10 miles    
Events      
T = Trace of Precipitation, MM = Missing Value Source: NWS Daily Summary

Daily Weather History Graph

Daily Weather History Graph

Search for Another Location

Airport or City:

Trip Planner

Search our weather history database for the weather conditions in past years. The results will help you decide how hot, cold, wet, or windy it might be!

Date:

Astronomy

Nov. 03, 2013 Rise Set
Actual Time 7:34 AM CST 5:22 PM CST
Civil Twilight 7:01 AM CST 5:55 PM CST
Nautical Twilight 6:24 AM CST 6:32 PM CST
Astronomical Twilight 5:47 AM CST 7:08 PM CST
Moon 7:41 AM CST (11/3) 5:36 PM CST (11/3)
Length of Visible Light 10h 54m
Length of Day
9h 48m
New Moon, 0% of the Moon is Illuminated
Nov 3
New Moon
Nov 9
First Quarter
Nov 17
Full
Nov 25
Last Quarter
Dec 2
New

Hourly Weather History & Observations

Time (CST) Temp. Windchill Dew Point Humidity Pressure Visibility Wind Dir Wind Speed Gust Speed Precip Events Conditions
12:54 AM 41.0 °F 34.7 °F 28.9 °F 62% 29.77 in 10.0 mi ESE 10.4 mph - N/A   Scattered Clouds
1:54 AM 39.9 °F 33.9 °F 30.0 °F 68% 29.75 in 10.0 mi ESE 9.2 mph - N/A   Clear
1:54 AM 39.0 °F 31.8 °F 30.0 °F 70% 29.70 in 10.0 mi ESE 11.5 mph - N/A   Clear
2:54 AM 39.9 °F 32.1 °F 30.9 °F 70% 29.67 in 10.0 mi East 13.8 mph - N/A   Clear
3:54 AM 37.9 °F 29.6 °F 30.0 °F 73% 29.65 in 10.0 mi ESE 13.8 mph - N/A   Clear
4:54 AM 39.9 °F 32.1 °F 30.0 °F 68% 29.62 in 10.0 mi ESE 13.8 mph 24.2 mph N/A   Clear
5:54 AM 37.9 °F 29.6 °F 30.0 °F 73% 29.61 in 10.0 mi ESE 13.8 mph - N/A   Clear
6:54 AM 37.0 °F 29.3 °F 30.0 °F 76% 29.58 in 10.0 mi ESE 11.5 mph - N/A   Clear
7:54 AM 36.0 °F 28.5 °F 28.9 °F 76% 29.58 in 10.0 mi ESE 10.4 mph - N/A   Clear
8:54 AM 37.0 °F 30.4 °F 30.0 °F 76% 29.58 in 10.0 mi ESE 9.2 mph - N/A   Clear
9:54 AM 39.9 °F 33.4 °F 30.0 °F 68% 29.57 in 10.0 mi SE 10.4 mph - N/A   Clear
10:54 AM 44.1 °F 40.1 °F 30.9 °F 60% 29.56 in 10.0 mi SE 6.9 mph - N/A   Clear
11:54 AM 45.0 °F 43.5 °F 30.0 °F 56% 29.54 in 10.0 mi ESE 3.5 mph - N/A   Clear
12:54 PM 46.0 °F - 30.0 °F 54% 29.53 in 10.0 mi Calm Calm - N/A   Clear
1:54 PM 46.9 °F - 30.9 °F 54% 29.55 in 10.0 mi South 5.8 mph - N/A   Clear
2:54 PM 48.0 °F - 30.9 °F 52% 29.56 in 10.0 mi WSW 5.8 mph - N/A   Clear
3:54 PM 48.0 °F - 30.9 °F 52% 29.55 in 10.0 mi Calm Calm - N/A   Scattered Clouds
4:54 PM 45.0 °F 43.5 °F 33.1 °F 63% 29.59 in 10.0 mi ESE 3.5 mph - N/A   Mostly Cloudy
5:54 PM 44.1 °F - 33.1 °F 65% 29.60 in 10.0 mi Calm Calm - N/A   Overcast
6:54 PM 43.0 °F 38.8 °F 32.0 °F 65% 29.62 in 10.0 mi SW 6.9 mph - N/A   Scattered Clouds
7:54 PM 45.0 °F 38.9 °F 33.1 °F 63% 29.64 in 10.0 mi WSW 12.7 mph - N/A   Clear
8:54 PM 43.0 °F 36.8 °F 30.0 °F 60% 29.65 in 10.0 mi West 11.5 mph - N/A   Clear
9:54 PM 39.9 °F 34.5 °F 28.9 °F 65% 29.66 in 10.0 mi WSW 8.1 mph - N/A   Clear
10:54 PM 37.0 °F 30.4 °F 28.0 °F 70% 29.67 in 10.0 mi WSW 9.2 mph - N/A   Clear